Regional Weather Roundup
Issued by NWS Little Rock, AR

Home | Current Version | Previous Version | Graphics & Text | Print | Product List | Glossary On
Versions: 1 2 3 4 5 6 7 8 9 10 11 12 13 14 15 16 17 18 19 20 21 22 23 24 25 26 27
000
ASUS44 KLZK 281505
RWRLZK

WEATHER ROUNDUP FOR ARKANSAS
NATIONAL WEATHER SERVICE LITTLE ROCK AR
1000 AM CDT SAT MAY 28 2016

NOTE: "FAIR" INDICATES FEW OR NO CLOUDS BELOW 12,000 FEET WITH NO
SIGNIFICANT WEATHER AND/OR OBSTRUCTIONS TO VISIBILITY.

ARZ001-003-010-029-281600-
NORTHWEST ARKANSAS

CITY           SKY/WX    TMP DP  RH WIND       PRES   REMARKS
FAYETTEVILLE   CLOUDY    68  63  84 SW12      29.96R
FORT SMITH     PTSUNNY   73  62  68 SW8       29.95R
HARRISON       CLOUDY    73  63  70 S6        29.95R
BENTONVILLE    CLOUDY    68  61  77 SW10      29.96R
ROGERS           N/A     68  63  83 SW15      29.97R
SILOAM SPGS    CLOUDY    68  57  68 SW16      29.97R
HIGHFILL       CLOUDY    67  63  87 SW14      29.95R
SPRINGDALE     CLOUDY    68  63  83 SW12G17   29.98R
$$

ARZ004-005-016-281600-
NORTH CENTRAL ARKANSAS

CITY           SKY/WX    TMP DP  RH WIND       PRES   REMARKS
BATESVILLE     MOSUNNY   75  64  69 S8        29.97S
FLIPPIN        SUNNY    N/A N/A N/A SE3       29.90S
MTN HOME       SUNNY     73  63  70 S8        29.93R
$$

ARZ040-041-281600-
WEST CENTRAL ARKANSAS

CITY           SKY/WX    TMP DP  RH WIND       PRES   REMARKS
MENA           CLOUDY    70  64  83 SW7       29.99R
MOUNT IDA      CLOUDY    70  62  76 MISG      29.95R
$$

ARZ009-017-025-026-028-281600-
NORTHEAST ARKANSAS

CITY           SKY/WX    TMP DP  RH WIND       PRES   REMARKS
CORNING          N/A     77  70  78 S13       29.98R
JONESBORO      MOSUNNY   75  68  78 S9        29.97S
NEWPORT        MOSUNNY   77  68  73 S12       29.98R
WALNUT RIDGE   MOSUNNY   73  64  73 S12       29.97S
BLYTHEVILLE    PTSUNNY   76  67  73 S10       30.00R
$$

ARZ022-023-033-042-044-281600-
CENTRAL ARKANSAS

CITY           SKY/WX    TMP DP  RH WIND       PRES   REMARKS
LITTLE ROCK    PTSUNNY   75  65  70 SE5       29.97R
N LITTLE ROCK    N/A     74  65  74 S5        29.95R
JACKSONVILLE   MOSUNNY   74  67  76 VRB1      29.96R
SEARCY         CLOUDY    74  68  81 S8        29.98S
HOT SPRINGS    CLOUDY    73  63  70 SW8       29.97R
RUSSELLVILLE   CLOUDY    74  64  71 VRB7      29.95R
CLINTON        FAIR      75  64  69 CALM      29.96S
$$

ARZ036-281600-
EAST ARKANSAS

CITY           SKY/WX    TMP DP  RH WIND       PRES   REMARKS
WEST MEMPHIS   MOSUNNY   77  69  76 S15       29.99R
$$

ARZ050-053-066-070-073-281600-
SOUTHWEST ARKANSAS

CITY           SKY/WX    TMP DP  RH WIND       PRES   REMARKS
ARKADELPHIA    CLOUDY    75  66  73 SW8       29.98R
CAMDEN         MOSUNNY   73  64  73 SE3       29.97S
TEXARKANA      CLOUDY    67  64  90 SW7       29.98R
EL DORADO      CLOUDY    71  66  84 SE5       29.98R
DE QUEEN       CLOUDY    67  65  93 S5        29.96R
$$

ARZ056-057-069-281600-
SOUTHEAST ARKANSAS

CITY           SKY/WX    TMP DP  RH WIND       PRES   REMARKS
PINE BLUFF     CLOUDY    76  66  71 S5        29.97R
STUTTGART      MOSUNNY   73  64  73 SE9       29.97F
MONTICELLO     MOSUNNY   74  67  78 S6        29.98R

$$






USA.gov is the U.S. government's official web portal to all federal, state and local government web resources and services.